Tracking 19176 objects as of 26-May-2018
HD Live streaming from Space Station
objects crossing your sky now

ORBVIEW 1 (MICROLAB)

Track ORBVIEW 1 (MICROLAB) now!
10-day predictions
ORBVIEW 1 (MICROLAB) is classified as:


NORAD ID: 23547
Int'l Code: 1995-017C
Perigee: 692.3 km
Apogee: 710.6 km
Inclination: 70.0 °
Period: 98.7 minutes
Semi major axis: 7072 km
RCS: 0.7959 m2 (medium)
Launch date: April 3, 1995
Source: United States (US)
Launch site: AIR FORCE WESTERN TEST RANGE (AFWTR)
aabbcc
Your satellite tracking list
Your tracking list is empty




NASA's NSSDC Master Catalog

Two Line Element Set (TLE):
1 23547U 95017C   18145.15157019 +.00000090 +00000-0 +32982-4 0  9998
2 23547 069.9807 041.9075 0012927 258.0977 101.8712 14.59650129228214
Source of the keplerian elements: AFSPC